| time (UTC) | temp F | wind direction | speed knots | gust knots | rain 1hr in | rain 24hr in | rain mn in | humidity % | barometer mb |
| 20260506191546 | 49 | 0.0 | 0.0 | 0.00 | 0.20 | 0.20 | 93 | 1009.4 | |
| 20260506190118 | 49 | 0.0 | 0.0 | 0.00 | 0.20 | 0.20 | 93 | 1009.2 | |
| 20260506184547 | 49 | 0.0 | 0.0 | 0.00 | 0.20 | 0.20 | 92 | 1009.1 | |
| 20260506183017 | 49 | 9 | 0.0 | 0.9 | 0.00 | 0.20 | 0.20 | 92 | 1009.1 |
| 20260506181549 | 49 | 21 | 0.9 | 0.9 | 0.00 | 0.20 | 0.20 | 92 | 1009.0 |
| 20260506180019 | 49 | 13 | 0.0 | 0.9 | 0.01 | 0.20 | 0.20 | 92 | 1008.9 |
| 20260506174551 | 49 | 6 | 0.9 | 2.6 | 0.01 | 0.20 | 0.20 | 92 | 1008.9 |
| 20260506173021 | 48 | 15 | 1.7 | 3.5 | 0.01 | 0.20 | 0.20 | 92 | 1008.8 |
| 20260506171553 | 48 | 358 | 2.6 | 5.2 | 0.01 | 0.20 | 0.20 | 92 | 1008.7 |
| 20260506170023 | 48 | 101 | 2.6 | 3.5 | 0.01 | 0.19 | 0.19 | 91 | 1008.6 |
| 20260506164556 | 49 | 69 | 0.9 | 0.9 | 0.01 | 0.19 | 0.19 | 91 | 1008.5 |
| 20260506163026 | 49 | 61 | 0.9 | 0.9 | 0.02 | 0.19 | 0.19 | 91 | 1008.6 |
| 20260506161557 | 49 | 50 | 0.9 | 0.9 | 0.03 | 0.19 | 0.19 | 92 | 1008.6 |
| 20260506160027 | 49 | 31 | 0.0 | 0.9 | 0.03 | 0.18 | 0.18 | 92 | 1008.7 |
| 20260506154559 | 49 | 18 | 0.0 | 0.9 | 0.04 | 0.18 | 0.18 | 91 | 1008.7 |
| 20260506153029 | 49 | 33 | 0.9 | 2.6 | 0.04 | 0.17 | 0.17 | 91 | 1008.8 |
| 20260506151601 | 49 | 22 | 1.7 | 3.5 | 0.04 | 0.16 | 0.16 | 90 | 1008.8 |
| 20260506150031 | 49 | 40 | 0.9 | 2.6 | 0.04 | 0.15 | 0.15 | 90 | 1008.8 |
| 20260506144603 | 49 | 36 | 1.7 | 3.5 | 0.05 | 0.14 | 0.14 | 90 | 1008.6 |
| 20260506143033 | 49 | 30 | 0.9 | 3.5 | 0.05 | 0.13 | 0.13 | 89 | 1008.6 |
| 20260506141606 | 48 | 46 | 0.9 | 2.6 | 0.05 | 0.12 | 0.12 | 89 | 1008.6 |
| 20260506140036 | 48 | 31 | 0.9 | 2.6 | 0.05 | 0.11 | 0.11 | 88 | 1008.6 |
| 20260506134607 | 48 | 23 | 0.9 | 2.6 | 0.03 | 0.09 | 0.09 | 87 | 1008.6 |
| 20260506133037 | 48 | 9 | 1.7 | 5.2 | 0.03 | 0.08 | 0.08 | 86 | 1008.7 |
| 20260506131609 | 48 | 6 | 2.6 | 6.1 | 0.03 | 0.07 | 0.07 | 85 | 1008.5 |
| 20260506130039 | 48 | 352 | 1.7 | 5.2 | 0.03 | 0.06 | 0.06 | 85 | 1008.5 |
| 20260506124611 | 49 | 26 | 1.7 | 6.1 | 0.03 | 0.06 | 0.06 | 85 | 1008.4 |
| 20260506123112 | 49 | 25 | 0.9 | 2.6 | 0.03 | 0.05 | 0.05 | 85 | 1008.3 |
| 20260506121542 | 49 | 33 | 1.7 | 3.5 | 0.03 | 0.04 | 0.04 | 86 | 1008.3 |
| 20260506120114 | 49 | 54 | 0.9 | 6.1 | 0.02 | 0.03 | 0.03 | 84 | 1008.2 |
| 20260506114544 | 49 | 53 | 0.9 | 2.6 | 0.02 | 0.03 | 0.03 | 84 | 1008.1 |
| 20260506113116 | 49 | 359 | 1.7 | 5.2 | 0.02 | 0.02 | 0.02 | 81 | 1008.1 |
| 20260506111546 | 49 | 81 | 2.6 | 6.1 | 0.01 | 0.01 | 0.01 | 79 | 1008.2 |
| 20260506110016 | 49 | 50 | 1.7 | 3.5 | 0.01 | 0.01 | 0.01 | 80 | 1008.0 |
| 20260506104548 | 49 | 30 | 1.7 | 5.2 | 0.01 | 0.01 | 0.01 | 78 | 1008.0 |
| 20260506103018 | 50 | 50 | 0.9 | 3.5 | 0.00 | 0.00 | 0.00 | 79 | 1008.0 |
| 20260506101550 | 50 | 54 | 1.7 | 3.5 | 0.00 | 0.00 | 0.00 | 78 | 1008.0 |
| 20260506100020 | 50 | 69 | 0.9 | 3.5 | 0.00 | 0.00 | 0.00 | 75 | 1008.0 |
| 20260506094552 | 51 | 79 | 1.7 | 3.5 | 0.00 | 0.00 | 0.00 | 73 | 1007.8 |
| 20260506093022 | 51 | 33 | 2.6 | 6.1 | 0.00 | 0.00 | 0.00 | 72 | 1007.9 |
| 20260506091554 | 51 | 43 | 3.5 | 7.8 | 0.00 | 0.00 | 0.00 | 70 | 1007.7 |
| 20260506090024 | 51 | 28 | 1.7 | 5.2 | 0.00 | 0.00 | 0.00 | 70 | 1007.6 |
| 20260506084556 | 50 | 35 | 1.7 | 5.2 | 0.00 | 0.00 | 0.00 | 71 | 1007.6 |
| 20260506083026 | 50 | 31 | 2.6 | 7.8 | 0.00 | 0.00 | 0.00 | 72 | 1007.5 |
| 20260506081558 | 50 | 71 | 3.5 | 11.3 | 0.00 | 0.00 | 0.00 | 69 | 1007.2 |
| 20260506073030 | 50 | 28 | 3.5 | 8.7 | 0.00 | 0.00 | 0.00 | 75 | 1007.0 |
| 20260506071602 | 49 | 24 | 3.5 | 6.1 | 0.00 | 0.00 | 0.00 | 76 | 1006.9 |
| 20260506070104 | 49 | 29 | 3.5 | 6.1 | 0.00 | 0.00 | 0.00 | 78 | 1006.9 |
| 20260506061536 | 48 | 34 | 3.5 | 11.3 | 0.00 | 0.00 | 0.00 | 82 | 1006.8 |
| 20260506060108 | 48 | 3 | 3.5 | 7.8 | 0.00 | 0.00 | 0.00 | 83 | 1006.9 |
| 20260506050111 | 48 | 31 | 1.7 | 6.1 | 0.00 | 0.00 | 0.00 | 84 | 1006.9 |
| 20260506044541 | 49 | 33 | 2.6 | 8.7 | 0.00 | 0.00 | 0.00 | 83 | 1006.9 |
| 20260506043113 | 49 | 28 | 2.6 | 5.2 | 0.00 | 0.00 | 0.00 | 81 | 1006.9 |
| 20260506041543 | 49 | 26 | 3.5 | 9.6 | 0.00 | 0.00 | 0.00 | 79 | 1007.0 |
| 20260506040045 | 49 | 23 | 0.9 | 3.5 | 0.00 | 0.00 | 0.00 | 77 | 1007.0 |
| 20260506034616 | 49 | 347 | 1.7 | 3.5 | 0.00 | 0.00 | 0.00 | 78 | 1006.8 |
| 20260506033046 | 49 | 58 | 1.7 | 5.2 | 0.00 | 0.00 | 0.00 | 80 | 1006.9 |
| 20260506031516 | 50 | 43 | 1.7 | 5.2 | 0.00 | 0.00 | 0.00 | 81 | 1007.1 |
| 20260506030049 | 50 | 24 | 1.7 | 5.2 | 0.00 | 0.00 | 0.00 | 81 | 1007.2 |
| 20260506024519 | 50 | 51 | 1.7 | 2.6 | 0.00 | 0.00 | 0.00 | 82 | 1007.4 |
| 20260506023050 | 50 | 17 | 2.6 | 11.3 | 0.00 | 0.00 | 0.00 | 82 | 1007.3 |
| 20260506021520 | 50 | 30 | 1.7 | 6.1 | 0.00 | 0.00 | 0.00 | 82 | 1007.3 |
| 20260506020053 | 50 | 19 | 1.7 | 5.2 | 0.00 | 0.00 | 0.00 | 82 | 1007.5 |
| 20260506014523 | 50 | 9 | 1.7 | 5.2 | 0.00 | 0.00 | 0.00 | 82 | 1007.6 |
| 20260506013054 | 50 | 67 | 2.6 | 6.1 | 0.00 | 0.00 | 0.00 | 82 | 1007.6 |
| 20260506011524 | 51 | 48 | 2.6 | 7.8 | 0.00 | 0.01 | 0.00 | 82 | 1007.6 |
| 20260506010057 | 51 | 81 | 2.6 | 12.2 | 0.00 | 0.03 | 0.00 | 82 | 1007.7 |
| 20260506004527 | 51 | 13 | 0.9 | 3.5 | 0.00 | 0.10 | 0.00 | 82 | 1007.7 |
| 20260506003058 | 51 | 43 | 1.7 | 6.1 | 0.00 | 0.16 | 0.00 | 82 | 1007.9 |
| 20260506001528 | 51 | 29 | 0.9 | 2.6 | 0.00 | 0.18 | 0.00 | 82 | 1007.8 |
| 20260506000101 | 51 | 43 | 1.7 | 6.1 | 0.00 | 0.23 | 0.00 | 82 | 1008.0 |
| 20260505234531 | 51 | 37 | 1.7 | 6.1 | 0.00 | 0.23 | 0.00 | 82 | 1008.1 |
| 20260505233102 | 52 | 1 | 1.7 | 6.1 | 0.00 | 0.24 | 0.00 | 83 | 1008.2 |
| 20260505231532 | 52 | 22 | 0.9 | 0.9 | 0.00 | 0.24 | 0.00 | 83 | 1008.3 |
| 20260505230105 | 52 | 23 | 0.9 | 2.6 | 0.00 | 0.24 | 0.00 | 84 | 1008.4 |
| 20260505224535 | 52 | 36 | 3.5 | 8.7 | 0.00 | 0.24 | 0.00 | 84 | 1008.3 |
| 20260505223106 | 52 | 20 | 2.6 | 5.2 | 0.00 | 0.24 | 0.00 | 83 | 1008.3 |
| 20260505221536 | 52 | 24 | 3.5 | 5.2 | 0.00 | 0.24 | 0.00 | 82 | 1008.4 |
| 20260505220109 | 52 | 9 | 2.6 | 5.2 | 0.00 | 0.24 | 0.00 | 82 | 1008.6 |
| 20260505214539 | 52 | 16 | 2.6 | 5.2 | 0.00 | 0.24 | 0.24 | 83 | 1008.7 |
| 20260505213110 | 52 | 15 | 1.7 | 3.5 | 0.00 | 0.24 | 0.24 | 85 | 1008.8 |
| 20260505211540 | 52 | 7 | 0.9 | 2.6 | 0.00 | 0.24 | 0.24 | 85 | 1008.8 |
| 20260505210112 | 52 | 40 | 1.7 | 5.2 | 0.00 | 0.24 | 0.24 | 87 | 1008.8 |
| 20260505204542 | 53 | 24 | 2.6 | 6.1 | 0.00 | 0.24 | 0.24 | 87 | 1008.9 |
| 20260505203114 | 53 | 22 | 3.5 | 6.1 | 0.00 | 0.24 | 0.24 | 88 | 1008.9 |
| 20260505201545 | 53 | 31 | 3.5 | 5.2 | 0.00 | 0.24 | 0.24 | 88 | 1008.8 |
| 20260505200116 | 53 | 15 | 2.6 | 5.2 | 0.00 | 0.24 | 0.24 | 89 | 1008.8 |
| 20260505194546 | 53 | 5 | 3.5 | 7.8 | 0.00 | 0.24 | 0.24 | 89 | 1008.8 |
| 20260505193016 | 53 | 25 | 4.3 | 8.7 | 0.00 | 0.24 | 0.24 | 88 | 1008.5 |